Namest Nad Oslav, Czech Republic

3:46 PM CEST on October 21, 2019 (GMT +0200)
Namest

Weather History for LKNA - August, 2019

Change the Weather History Date:

Saturday, August 3, 2019

  Actual Average (WUND) Record (WUND)
Temperature  
Mean Temperature 64 °F -  
Max Temperature 71 °F - - (-1)
Min Temperature 56 °F - - (-1)
Degree Days  
Heating Degree Days 2    
Growing Degree Days 14 (Base 50)    
Moisture  
Dew Point 55 °F    
Average Humidity 75    
Maximum Humidity 96    
Minimum Humidity 47    
Precipitation  
Precipitation 0.16 in - - ()
Sea Level Pressure  
Sea Level Pressure 29.92 in    
Wind  
Wind Speed 6 mph ()    
Max Wind Speed 12 mph    
Max Gust Speed -    
Visibility 8.5 miles    
Events Rain , Thunderstorm    
Averages and records for this station are not official NWS values.
T = Trace of Precipitation, MM = Missing Value Source: Averaged Metar Reports

Daily Weather History Graph

Daily Weather History Graph

Search for Another Location

Airport or City:

Astronomy

Aug. 03, 2019 Rise Set
Actual Time 5:29 AM CEST 8:32 PM CEST
Civil Twilight 4:52 AM CEST 9:09 PM CEST
Nautical Twilight 4:03 AM CEST 9:58 PM CEST
Astronomical Twilight 3:02 AM CEST 10:58 PM CEST
Moon 8:10 AM CEST (8/3) 10:13 PM CEST (8/3)
Length of Visible Light 16h 17m
Length of Day
15h 02m
Waxing Crescent, 8% of the Moon is Illuminated
Aug 3
Waxing Crescent
Aug 7
First Quarter
Aug 15
Full
Aug 23
Last Quarter
Aug 30
New

Hourly Weather History & Observations

Time (CEST) Temp. Dew Point Humidity Pressure Visibility Wind Dir Wind Speed Gust Speed Precip Events Conditions
12:00 AM 64 °F 52 °F 55% 29.89 in 16 mi NW 6.7 mph - -   Scattered Clouds
12:00 AM 64.4 °F 53.6 °F 68% 29.92 in - NW 5.8 mph - N/A   Clear
1:00 AM 63 °F 51 °F 56% 29.88 in 16 mi NNW 6.7 mph - -  
1:00 AM 62.6 °F 53.6 °F 72% 29.92 in - NNW 6.9 mph - N/A   Clear
2:00 AM 60 °F 50 °F 61% 29.89 in 16 mi WNW 4.5 mph - -  
3:00 AM 60 °F 50 °F 61% 29.88 in 16 mi WNW 6.7 mph - -   Mostly Cloudy
3:00 AM 57.2 °F 51.8 °F 82% 29.89 in - WNW 9.2 mph - N/A   Clear
4:00 AM 59 °F 50 °F 63% 29.89 in 16 mi North 4.5 mph - -   Mostly Cloudy
4:00 AM 59.0 °F 51.8 °F 77% 29.89 in - NNW 4.6 mph - N/A   Clear
5:00 AM 60 °F 50 °F 60% 29.89 in 12 mi NNW 4.5 mph - -   Mostly Cloudy
5:00 AM 59.0 °F 50.0 °F 72% 29.92 in - NNW 3.5 mph - N/A   Clear
6:00 AM 59 °F 51 °F 66% 29.89 in 16 mi NNW 6.7 mph - -   Mostly Cloudy
6:00 AM 59.0 °F 51.8 °F 77% 29.89 in - NNW 6.9 mph - N/A   Clear
6:12 AM 59.0 °F 51.8 °F 77% 29.89 in 6.2 mi North 5.8 mph - N/A Rain Light Rain
7:58 AM 57.2 °F 55.4 °F 94% 29.92 in 6.2 mi NNW 6.9 mph - N/A Rain Light Rain
8:00 AM 57 °F 55 °F 92% 29.93 in 2 mi NNW 6.7 mph - - Rain Light Rain
8:00 AM 57.2 °F 55.4 °F 94% 29.92 in 2.2 mi NNW 6.9 mph - N/A Rain Light Rain
9:00 AM 59.0 °F 55.4 °F 88% 29.92 in 6.2 mi Variable 2.3 mph - N/A   Mostly Cloudy
10:00 AM 62.6 °F 57.2 °F 82% 29.92 in 6.2 mi NW 5.8 mph - N/A   Mostly Cloudy
11:00 AM 66 °F 55 °F 59% 29.89 in 19 mi WNW 8.9 mph - -   Partly Cloudy
11:00 AM 66.2 °F 57.2 °F 73% 29.92 in 6.2 mi NW 8.1 mph - N/A   Mostly Cloudy
12:00 PM 68 °F 54 °F 51% 29.88 in 19 mi NNW 4.5 mph - - Thunderstorm Thunderstorm
12:00 PM 68.0 °F 55.4 °F 64% 29.92 in 6.2 mi NW 5.8 mph - N/A Thunderstorm Scattered Clouds
1:00 PM 71 °F 55 °F 47% 29.86 in 19 mi West 8.9 mph - - Thunderstorm Thunderstorm
1:00 PM 69.8 °F 55.4 °F 60% 29.92 in 6.2 mi SW 9.2 mph - N/A Thunderstorm Scattered Clouds
1:15 PM 69.8 °F 55.4 °F 60% 29.89 in 6.2 mi NE 11.5 mph - N/A Rain , Thunderstorm Light Thunderstorms and Rain
2:00 PM 64 °F 56 °F 67% 29.88 in 3 mi ESE 6.7 mph - - Rain , Thunderstorm Thunderstorms and Rain
2:00 PM 68.0 °F 53.6 °F 60% 29.92 in 4.3 mi East 8.1 mph - N/A Rain , Thunderstorm Thunderstorms and Rain
2:43 PM 66.2 °F 57.2 °F 73% 29.92 in 6.2 mi SSW 4.6 mph - N/A Rain , Thunderstorm Light Thunderstorms and Rain
2:58 PM 62.6 °F 53.6 °F 72% 29.95 in 1.2 mi North 8.1 mph - N/A Rain , Thunderstorm Thunderstorms and Rain
3:00 PM 63 °F 54 °F 65% 29.93 in 1 mi North 8.9 mph - - Rain , Thunderstorm Thunderstorms and Rain
3:00 PM 64.4 °F 57.2 °F 77% 29.92 in 6.2 mi Variable 4.6 mph - N/A Rain , Thunderstorm Light Thunderstorms and Rain
3:32 PM 62.6 °F 55.4 °F 77% 29.92 in 6.2 mi WNW 3.5 mph - N/A Rain , Thunderstorm Light Rain
4:00 PM 60.8 °F 57.2 °F 88% 29.92 in 6.2 mi Variable 4.6 mph - N/A Thunderstorm Mostly Cloudy
4:40 PM 60.8 °F 59.0 °F 94% 29.98 in 6.2 mi SSE 6.9 mph - N/A   Mostly Cloudy
6:00 PM 60 °F 58 °F 92% 29.94 in 6 mi SSW 8.9 mph - - Rain Light Rain Showers
6:00 PM 60.8 °F 59.0 °F 94% 29.95 in 6.2 mi SSW 9.2 mph - N/A Rain Light Rain Showers
7:00 PM 60 °F 59 °F 96% 29.93 in 6 mi WSW 11.2 mph - - Rain Light Rain Showers
9:00 PM 59 °F 58 °F 94% 29.95 in 5 mi West 8.9 mph - -   Mist
10:00 PM 59.0 °F 57.2 °F 94% 29.98 in - WNW 11.5 mph - N/A   Clear
11:00 PM 57 °F 55 °F 91% 29.97 in 5 mi NW 8.9 mph - -   Mist
11:00 PM 57.2 °F 55.4 °F 94% 29.98 in - NW 8.1 mph - N/A   Clear